Time,TemperatureF,DewpointF,PressureIn,WindDirection,WindDirectionDegrees,WindSpeedMPH,WindSpeedGustMPH,Humidity,HourlyPrecipIn,Conditions,Clouds,dailyrainin,SoftwareType,DateUTC
2013-07-30 00:00:00,61.0,60.1,30.18,West,270,0.0,0.0,97,0.00,BKN,,0.00,WeatherDisplay:10.37,2013-07-30 04:00:00,
2013-07-30 00:01:00,61.0,60.1,30.18,West,270,0.0,0.0,97,0.00,BKN,,0.00,WeatherDisplay:10.37,2013-07-30 04:01:00,
2013-07-30 00:02:00,61.0,60.1,30.18,West,270,0.0,0.0,97,0.00,BKN,,0.00,WeatherDisplay:10.37,2013-07-30 04:02:00,
2013-07-30 00:03:00,61.0,60.1,30.18,West,270,0.0,0.0,97,0.00,BKN,,0.00,WeatherDisplay:10.37,2013-07-30 04:03:00,
2013-07-30 00:05:00,61.0,60.1,30.18,West,270,0.0,0.0,97,0.00,BKN,,0.00,WeatherDisplay:10.37,2013-07-30 04:05:00,
2013-07-30 00:10:00,61.0,60.1,30.18,West,270,0.0,0.0,97,0.00,BKN,BKN,0.00,WeatherDisplay:10.37,2013-07-30 04:10:00,
2013-07-30 00:15:00,60.6,60.0,30.18,West,270,0.0,0.0,98,0.00,BKN,,0.00,WeatherDisplay:10.37,2013-07-30 04:15:00,
2013-07-30 00:20:00,60.4,59.8,30.19,West,270,0.0,0.0,98,0.00,BKN,,0.00,WeatherDisplay:10.37,2013-07-30 04:20:00,
2013-07-30 00:25:00,60.4,59.8,30.19,West,270,0.0,0.0,98,0.00,BKN,,0.00,WeatherDisplay:10.37,2013-07-30 04:25:00,
2013-07-30 00:30:00,60.4,59.8,30.19,West,270,0.0,0.0,98,0.00,BKN,,0.00,WeatherDisplay:10.37,2013-07-30 04:30:00,
2013-07-30 00:35:00,60.4,59.8,30.19,West,270,0.0,0.0,98,0.00,BKN,,0.00,WeatherDisplay:10.37,2013-07-30 04:35:00,
2013-07-30 00:40:00,60.3,59.4,30.19,West,270,0.0,0.0,97,0.00,BKN,,0.00,WeatherDisplay:10.37,2013-07-30 04:40:00,
2013-07-30 00:45:00,60.3,59.4,30.19,West,270,0.0,0.0,97,0.00,BKN,,0.00,WeatherDisplay:10.37,2013-07-30 04:45:00,
2013-07-30 00:50:00,59.7,59.1,30.19,West,270,0.0,0.0,98,0.00,BKN,,0.00,WeatherDisplay:10.37,2013-07-30 04:50:00,
2013-07-30 00:55:00,59.5,58.9,30.19,West,270,0.0,0.0,98,0.00,BKN,,0.00,WeatherDisplay:10.37,2013-07-30 04:55:00,
2013-07-30 01:00:00,59.5,58.9,30.19,West,270,0.0,0.0,98,0.00,BKN,,0.00,WeatherDisplay:10.37,2013-07-30 05:00:00,
2013-07-30 01:05:00,59.2,58.6,30.19,West,270,0.0,0.0,98,0.00,BKN,,0.00,WeatherDisplay:10.37,2013-07-30 05:05:00,
2013-07-30 01:10:00,59.4,58.8,30.19,West,270,0.0,0.0,98,0.00,BKN,,0.00,WeatherDisplay:10.37,2013-07-30 05:10:00,
2013-07-30 01:15:00,58.8,58.2,30.20,West,270,0.0,0.0,98,0.00,BKN,,0.00,WeatherDisplay:10.37,2013-07-30 05:15:00,
2013-07-30 01:20:00,58.6,58.0,30.20,West,270,0.0,0.0,98,0.00,BKN,,0.00,WeatherDisplay:10.37,2013-07-30 05:20:00,
2013-07-30 01:25:00,58.3,57.7,30.20,West,270,0.0,0.0,98,0.00,BKN,,0.00,WeatherDisplay:10.37,2013-07-30 05:25:00,
2013-07-30 01:30:00,57.9,57.6,30.20,West,270,0.0,0.0,99,0.00,BKN,,0.00,WeatherDisplay:10.37,2013-07-30 05:30:00,
2013-07-30 01:35:00,57.7,57.4,30.20,West,270,0.0,0.0,99,0.00,BKN,,0.00,WeatherDisplay:10.37,2013-07-30 05:35:00,
2013-07-30 01:40:00,57.7,57.4,30.20,West,270,0.0,0.0,99,0.00,BKN,,0.00,WeatherDisplay:10.37,2013-07-30 05:40:00,
2013-07-30 01:45:00,57.6,57.3,30.20,West,270,0.0,0.0,99,0.00,BKN,,0.00,WeatherDisplay:10.37,2013-07-30 05:45:00,
2013-07-30 01:50:00,57.6,57.3,30.20,West,270,0.0,0.0,99,0.00,BKN,,0.00,WeatherDisplay:10.37,2013-07-30 05:50:00,
2013-07-30 01:55:00,57.2,56.9,30.21,West,270,0.0,0.0,99,0.00,BKN,,0.00,WeatherDisplay:10.37,2013-07-30 05:55:00,
2013-07-30 02:00:00,57.2,56.9,30.21,West,270,0.0,0.0,99,0.00,BKN,,0.00,WeatherDisplay:10.37,2013-07-30 06:00:00,
2013-07-30 02:05:00,57.2,56.9,30.20,West,270,0.0,0.0,99,0.00,BKN,,0.00,WeatherDisplay:10.37,2013-07-30 06:05:00,
2013-07-30 02:10:00,57.2,56.9,30.20,West,270,0.0,0.0,99,0.00,BKN,,0.00,WeatherDisplay:10.37,2013-07-30 06:10:00,
2013-07-30 02:15:00,57.2,56.9,30.20,West,270,0.0,0.0,99,0.00,BKN,,0.00,WeatherDisplay:10.37,2013-07-30 06:15:00,
2013-07-30 02:20:00,57.4,57.1,30.20,West,270,0.0,0.0,99,0.00,BKN,,0.00,WeatherDisplay:10.37,2013-07-30 06:20:00,
2013-07-30 02:25:00,57.4,57.1,30.20,West,270,0.0,0.0,99,0.00,BKN,,0.00,WeatherDisplay:10.37,2013-07-30 06:25:00,
2013-07-30 02:30:00,57.4,57.1,30.20,West,270,0.0,0.0,99,0.00,BKN,,0.00,WeatherDisplay:10.37,2013-07-30 06:30:00,
2013-07-30 02:35:00,57.4,57.1,30.20,West,270,0.0,0.0,99,0.00,BKN,,0.00,WeatherDisplay:10.37,2013-07-30 06:35:00,
2013-07-30 02:40:00,57.2,56.9,30.20,West,270,0.0,0.0,99,0.00,BKN,,0.00,WeatherDisplay:10.37,2013-07-30 06:40:00,
2013-07-30 02:45:00,57.2,57.2,30.20,West,270,0.0,0.0,100,0.00,BKN,,0.00,WeatherDisplay:10.37,2013-07-30 06:45:00,
2013-07-30 02:50:00,57.0,57.0,30.20,West,270,0.0,0.0,100,0.00,BKN,,0.00,WeatherDisplay:10.37,2013-07-30 06:50:00,
2013-07-30 02:55:00,57.2,57.2,30.20,West,270,0.0,0.0,100,0.00,BKN,,0.00,WeatherDisplay:10.37,2013-07-30 06:55:00,
2013-07-30 03:00:00,57.0,57.0,30.20,West,270,0.0,0.0,100,0.00,BKN,,0.00,WeatherDisplay:10.37,2013-07-30 07:00:00,
2013-07-30 03:05:00,57.0,57.0,30.20,West,270,0.0,0.0,100,0.00,BKN,,0.00,WeatherDisplay:10.37,2013-07-30 07:05:00,
2013-07-30 03:10:00,57.0,57.0,30.20,West,270,0.0,0.0,100,0.00,BKN,,0.00,WeatherDisplay:10.37,2013-07-30 07:10:00,
2013-07-30 03:15:00,56.8,56.8,30.20,West,270,0.0,0.0,100,0.00,BKN,,0.00,WeatherDisplay:10.37,2013-07-30 07:15:00,
2013-07-30 03:20:00,56.5,56.5,30.19,West,270,0.0,0.0,100,0.00,BKN,,0.00,WeatherDisplay:10.37,2013-07-30 07:20:00,
2013-07-30 03:25:00,56.5,56.5,30.19,West,270,0.0,0.0,100,0.00,BKN,,0.00,WeatherDisplay:10.37,2013-07-30 07:25:00,
2013-07-30 03:30:00,56.5,56.5,30.19,West,270,0.0,0.0,100,0.00,BKN,,0.00,WeatherDisplay:10.37,2013-07-30 07:30:00,
2013-07-30 03:35:00,56.3,56.3,30.19,West,270,0.0,0.0,100,0.00,BKN,,0.00,WeatherDisplay:10.37,2013-07-30 07:35:00,
2013-07-30 03:40:00,56.3,56.3,30.19,West,270,0.0,0.0,100,0.00,BKN,,0.00,WeatherDisplay:10.37,2013-07-30 07:40:00,
2013-07-30 03:45:00,56.1,56.1,30.19,West,270,0.0,0.0,100,0.00,BKN,,0.00,WeatherDisplay:10.37,2013-07-30 07:45:00,
2013-07-30 03:50:00,56.1,56.1,30.19,West,270,0.0,0.0,100,0.00,BKN,,0.00,WeatherDisplay:10.37,2013-07-30 07:50:00,
2013-07-30 03:55:00,56.3,56.3,30.19,West,270,0.0,0.0,100,0.00,BKN,,0.00,WeatherDisplay:10.37,2013-07-30 07:55:00,
2013-07-30 04:00:00,56.7,56.7,30.19,West,270,0.0,0.0,100,0.00,BKN,,0.00,WeatherDisplay:10.37,2013-07-30 08:00:00,
2013-07-30 04:05:00,56.3,56.3,30.19,West,270,0.0,0.0,100,0.00,BKN,,0.00,WeatherDisplay:10.37,2013-07-30 08:05:00,
2013-07-30 04:10:00,56.5,56.5,30.19,West,270,0.0,0.0,100,0.00,BKN,,0.00,WeatherDisplay:10.37,2013-07-30 08:10:00,
2013-07-30 04:15:00,56.3,56.3,30.20,West,270,0.0,0.0,100,0.00,BKN,,0.00,WeatherDisplay:10.37,2013-07-30 08:15:00,
2013-07-30 04:20:00,56.3,56.3,30.20,West,270,0.0,0.0,100,0.00,BKN,,0.00,WeatherDisplay:10.37,2013-07-30 08:20:00,
2013-07-30 04:25:00,56.3,56.3,30.20,West,270,0.0,0.0,100,0.00,BKN,,0.00,WeatherDisplay:10.37,2013-07-30 08:25:00,
2013-07-30 04:30:00,56.5,56.5,30.20,West,270,0.0,0.0,100,0.00,BKN,,0.00,WeatherDisplay:10.37,2013-07-30 08:30:00,
2013-07-30 04:35:00,56.5,56.5,30.20,West,270,0.0,0.0,100,0.00,BKN,,0.00,WeatherDisplay:10.37,2013-07-30 08:35:00,
2013-07-30 04:40:00,56.1,56.1,30.20,West,270,0.0,0.0,100,0.00,BKN,,0.00,WeatherDisplay:10.37,2013-07-30 08:40:00,
2013-07-30 04:45:00,55.9,55.9,30.20,West,270,0.0,0.0,100,0.00,BKN,,0.00,WeatherDisplay:10.37,2013-07-30 08:45:00,
2013-07-30 04:50:00,55.9,55.9,30.20,West,270,0.0,0.0,100,0.00,BKN,,0.00,WeatherDisplay:10.37,2013-07-30 08:50:00,
2013-07-30 04:55:00,55.8,55.8,30.20,West,270,0.0,0.0,100,0.00,BKN,,0.00,WeatherDisplay:10.37,2013-07-30 08:55:00,
2013-07-30 05:00:00,55.6,55.6,30.20,West,270,0.0,0.0,100,0.00,BKN,,0.00,WeatherDisplay:10.37,2013-07-30 09:00:00,
2013-07-30 05:05:00,55.4,55.4,30.20,West,270,0.0,0.0,100,0.00,BKN,,0.00,WeatherDisplay:10.37,2013-07-30 09:05:00,
2013-07-30 05:10:00,54.9,54.9,30.20,West,270,0.0,0.0,100,0.00,BKN,,0.00,WeatherDisplay:10.37,2013-07-30 09:10:00,
2013-07-30 05:15:00,54.9,54.9,30.20,West,270,0.0,0.0,100,0.00,BKN,,0.00,WeatherDisplay:10.37,2013-07-30 09:15:00,
2013-07-30 05:20:00,54.9,54.9,30.20,West,270,0.0,0.0,100,0.00,BKN,,0.00,WeatherDisplay:10.37,2013-07-30 09:20:00,
2013-07-30 05:25:00,54.7,54.7,30.20,West,270,0.0,0.0,100,0.00,BKN,,0.00,WeatherDisplay:10.37,2013-07-30 09:25:00,
2013-07-30 05:30:00,54.3,54.3,30.21,West,270,0.0,0.0,100,0.00,BKN,,0.00,WeatherDisplay:10.37,2013-07-30 09:30:00,
2013-07-30 05:35:00,54.1,54.1,30.21,West,270,0.0,0.0,100,0.00,BKN,,0.00,WeatherDisplay:10.37,2013-07-30 09:35:00,
2013-07-30 05:40:00,54.0,54.0,30.21,West,270,0.0,0.0,100,0.00,BKN,,0.00,WeatherDisplay:10.37,2013-07-30 09:40:00,
2013-07-30 05:45:00,54.0,54.0,30.21,West,270,0.0,0.0,100,0.00,BKN,,0.00,WeatherDisplay:10.37,2013-07-30 09:45:00,
2013-07-30 05:50:00,53.8,53.8,30.21,West,270,0.0,0.0,100,0.00,BKN,,0.00,WeatherDisplay:10.37,2013-07-30 09:50:00,
2013-07-30 05:55:00,53.8,53.8,30.22,West,270,0.0,0.0,100,0.00,BKN,,0.00,WeatherDisplay:10.37,2013-07-30 09:55:00,
2013-07-30 06:00:00,53.8,53.8,30.22,West,270,0.0,0.0,100,0.00,BKN,,0.00,WeatherDisplay:10.37,2013-07-30 10:00:00,
2013-07-30 06:05:00,53.2,53.2,30.22,West,270,0.0,0.0,100,0.00,BKN,,0.00,WeatherDisplay:10.37,2013-07-30 10:05:00,
2013-07-30 06:11:00,53.2,53.2,30.22,West,270,0.0,0.0,100,0.00,BKN,BKN,0.00,WeatherDisplay:10.37,2013-07-30 10:11:00,
2013-07-30 06:17:00,53.2,53.2,30.22,West,270,0.0,0.0,100,0.00,BKN,,0.00,WeatherDisplay:10.37,2013-07-30 10:17:00,
2013-07-30 06:22:00,53.2,53.2,30.22,West,270,0.0,0.0,100,0.00,BKN,,0.00,WeatherDisplay:10.37,2013-07-30 10:22:00,
2013-07-30 06:27:00,53.1,53.1,30.22,West,270,0.0,0.0,100,0.00,BKN,,0.00,WeatherDisplay:10.37,2013-07-30 10:27:00,
2013-07-30 06:32:00,53.2,53.2,30.22,West,270,0.0,0.0,100,0.00,SKC,,0.00,WeatherDisplay:10.37,2013-07-30 10:32:00,
2013-07-30 06:37:00,53.2,53.2,30.22,West,270,0.0,0.0,100,0.00,SKC,,0.00,WeatherDisplay:10.37,2013-07-30 10:37:00,
2013-07-30 06:42:00,53.1,53.1,30.23,West,270,0.0,0.0,100,0.00,SKC,,0.00,WeatherDisplay:10.37,2013-07-30 10:42:00,
2013-07-30 06:47:00,53.2,53.2,30.23,West,270,0.0,0.0,100,0.00,SKC,,0.00,WeatherDisplay:10.37,2013-07-30 10:47:00,
2013-07-30 06:52:00,53.2,53.2,30.23,West,270,0.0,0.0,100,0.00,SKC,,0.00,WeatherDisplay:10.37,2013-07-30 10:52:00,
2013-07-30 06:57:00,53.4,53.4,30.23,West,270,0.0,0.0,100,0.00,SKC,,0.00,WeatherDisplay:10.37,2013-07-30 10:57:00,
2013-07-30 07:02:00,53.8,53.8,30.23,West,270,0.0,0.0,100,0.00,FEW,,0.00,WeatherDisplay:10.37,2013-07-30 11:02:00,
2013-07-30 07:07:00,54.1,54.1,30.23,West,270,0.0,0.0,100,0.00,FEW,,0.00,WeatherDisplay:10.37,2013-07-30 11:07:00,
2013-07-30 07:12:00,54.9,54.9,30.23,West,270,0.0,0.0,100,0.00,FEW,,0.00,WeatherDisplay:10.37,2013-07-30 11:12:00,
2013-07-30 07:17:00,55.6,55.6,30.23,West,270,0.0,0.0,100,0.00,FEW,,0.00,WeatherDisplay:10.37,2013-07-30 11:17:00,
2013-07-30 07:22:00,56.1,56.1,30.23,West,270,0.0,0.0,100,0.00,FEW,,0.00,WeatherDisplay:10.37,2013-07-30 11:22:00,
2013-07-30 07:23:00,56.1,56.1,30.23,West,270,0.0,0.0,100,0.00,FEW,,0.00,WeatherDisplay:10.37,2013-07-30 11:23:00,
2013-07-30 07:28:00,56.7,56.4,30.23,West,270,0.0,0.0,99,0.00,FEW,,0.00,WeatherDisplay:10.37,2013-07-30 11:28:00,
2013-07-30 07:33:00,57.6,57.0,30.23,West,270,0.0,0.0,98,0.00,FEW,,0.00,WeatherDisplay:10.37,2013-07-30 11:33:00,
2013-07-30 07:35:00,57.8,57.3,30.23,West,270,0.0,0.0,98,0.00,FEW,FEW,0.00,WeatherDisplay:10.37,2013-07-30 11:35:00,
2013-07-30 07:40:00,58.6,57.2,30.23,West,270,1.0,5.0,95,0.00,FEW,FEW,0.00,WeatherDisplay:10.37,2013-07-30 11:40:00,
2013-07-30 07:45:00,59.9,57.9,30.24,West,270,0.0,2.3,93,0.00,FEW,,0.00,WeatherDisplay:10.37,2013-07-30 11:45:00,
2013-07-30 07:50:00,60.3,58.3,30.24,West,270,3.4,4.4,93,0.00,FEW,,0.00,WeatherDisplay:10.37,2013-07-30 11:50:00,
2013-07-30 07:55:00,61.2,58.6,30.23,SSE,158,2.1,3.5,91,0.00,FEW,,0.00,WeatherDisplay:10.37,2013-07-30 11:55:00,
2013-07-30 08:00:00,63.0,59.1,30.23,SSE,158,2.7,2.7,87,0.00,FEW,,0.00,WeatherDisplay:10.37,2013-07-30 12:00:00,
2013-07-30 08:05:00,62.8,59.2,30.23,SSE,158,0.0,0.0,88,0.00,BKN,,0.00,WeatherDisplay:10.37,2013-07-30 12:05:00,
2013-07-30 08:10:00,62.2,58.6,30.23,SSE,158,2.7,3.5,88,0.00,BKN,,0.00,WeatherDisplay:10.37,2013-07-30 12:10:00,
2013-07-30 08:15:00,65.8,59.8,30.23,SSE,158,3.2,4.6,81,0.00,BKN,,0.00,WeatherDisplay:10.37,2013-07-30 12:15:00,
2013-07-30 08:20:00,66.0,59.7,30.24,SSE,158,0.0,3.5,80,0.00,BKN,,0.00,WeatherDisplay:10.37,2013-07-30 12:20:00,
2013-07-30 08:25:00,65.1,59.5,30.24,SSE,158,0.9,4.6,82,0.00,BKN,,0.00,WeatherDisplay:10.37,2013-07-30 12:25:00,
2013-07-30 08:30:00,65.3,59.7,30.24,SSE,158,4.2,5.8,82,0.00,BKN,,0.00,WeatherDisplay:10.37,2013-07-30 12:30:00,
2013-07-30 08:35:00,66.4,60.4,30.24,SSE,158,3.8,6.1,81,0.00,BKN,,0.00,WeatherDisplay:10.37,2013-07-30 12:35:00,
2013-07-30 08:40:00,70.0,61.3,30.24,SSE,158,0.0,3.5,74,0.00,BKN,,0.00,WeatherDisplay:10.37,2013-07-30 12:40:00,
2013-07-30 08:45:00,69.3,61.0,30.24,SSE,158,2.2,5.3,75,0.00,BKN,,0.00,WeatherDisplay:10.37,2013-07-30 12:45:00,
2013-07-30 08:50:00,68.9,60.6,30.24,SSE,158,3.7,5.8,75,0.00,BKN,,0.00,WeatherDisplay:10.37,2013-07-30 12:50:00,
2013-07-30 08:55:00,70.5,61.0,30.24,SSE,158,2.8,4.6,72,0.00,BKN,,0.00,WeatherDisplay:10.37,2013-07-30 12:55:00,
2013-07-30 09:00:00,66.9,60.2,30.24,SSE,158,3.0,3.6,79,0.00,BKN,,0.00,WeatherDisplay:10.37,2013-07-30 13:00:00,
2013-07-30 09:05:00,65.8,59.8,30.24,SSE,158,2.4,4.4,81,0.00,BKN,,0.00,WeatherDisplay:10.37,2013-07-30 13:05:00,
2013-07-30 09:10:00,66.4,60.0,30.24,NW,315,4.0,4.6,80,0.00,BKN,,0.00,WeatherDisplay:10.37,2013-07-30 13:10:00,
2013-07-30 09:15:00,66.4,59.7,30.24,NW,315,0.0,0.0,79,0.00,BKN,,0.00,WeatherDisplay:10.37,2013-07-30 13:15:00,
2013-07-30 09:20:00,66.7,60.3,30.24,NW,315,2.1,3.6,80,0.00,BKN,,0.00,WeatherDisplay:10.37,2013-07-30 13:20:00,
2013-07-30 09:25:00,66.7,60.0,30.24,NW,315,0.0,2.3,79,0.00,BKN,,0.00,WeatherDisplay:10.37,2013-07-30 13:25:00,
2013-07-30 09:30:00,66.4,60.0,30.24,West,270,4.0,4.6,80,0.00,BKN,,0.00,WeatherDisplay:10.37,2013-07-30 13:30:00,
2013-07-30 09:35:00,67.1,57.8,30.24,West,270,3.6,5.8,72,0.00,BKN,,0.00,WeatherDisplay:10.37,2013-07-30 13:35:00,
2013-07-30 09:40:00,68.0,58.6,30.24,West,270,0.0,0.0,72,0.00,BKN,,0.00,WeatherDisplay:10.37,2013-07-30 13:40:00,
2013-07-30 09:45:00,67.8,58.4,30.24,North,360,3.6,4.6,72,0.00,BKN,,0.00,WeatherDisplay:10.37,2013-07-30 13:45:00,
2013-07-30 09:50:00,68.0,59.0,30.24,North,360,2.3,2.3,73,0.00,BKN,,0.00,WeatherDisplay:10.37,2013-07-30 13:50:00,
2013-07-30 09:55:00,67.8,58.4,30.23,North,360,1.4,4.6,72,0.00,BKN,,0.00,WeatherDisplay:10.37,2013-07-30 13:55:00,
2013-07-30 10:00:00,70.3,58.0,30.23,NNE,22,5.0,5.8,65,0.00,BKN,,0.00,WeatherDisplay:10.37,2013-07-30 14:00:00,
2013-07-30 10:05:00,70.3,58.8,30.23,NW,315,4.3,5.8,67,0.00,BKN,,0.00,WeatherDisplay:10.37,2013-07-30 14:05:00,
2013-07-30 10:10:00,69.6,58.2,30.23,WNW,292,3.7,5.8,67,0.00,BKN,,0.00,WeatherDisplay:10.37,2013-07-30 14:10:00,
2013-07-30 10:15:00,68.7,58.1,30.23,WNW,292,2.7,5.8,69,0.00,BKN,,0.00,WeatherDisplay:10.37,2013-07-30 14:15:00,
2013-07-30 10:20:00,70.9,58.5,30.23,East,90,4.2,7.8,65,0.00,BKN,,0.00,WeatherDisplay:10.37,2013-07-30 14:20:00,
2013-07-30 10:25:00,71.2,58.4,30.23,ESE,112,4.3,5.8,64,0.00,BKN,,0.00,WeatherDisplay:10.37,2013-07-30 14:25:00,
2013-07-30 10:30:00,70.7,57.9,30.23,ESE,112,3.8,5.3,64,0.00,BKN,,0.00,WeatherDisplay:10.37,2013-07-30 14:30:00,
2013-07-30 10:36:00,71.4,58.1,30.23,ESE,112,4.7,5.8,63,0.00,SCT,,0.00,WeatherDisplay:10.37,2013-07-30 14:36:00,
2013-07-30 10:41:00,72.1,59.2,30.23,ESE,112,3.1,4.6,64,0.00,SCT,,0.00,WeatherDisplay:10.37,2013-07-30 14:41:00,
2013-07-30 10:46:00,72.7,58.9,30.23,NNE,22,3.1,7.0,62,0.00,SCT,,0.00,WeatherDisplay:10.37,2013-07-30 14:46:00,
2013-07-30 10:51:00,72.1,59.7,30.23,West,270,5.7,8.7,65,0.00,SCT,,0.00,WeatherDisplay:10.37,2013-07-30 14:51:00,
2013-07-30 10:56:00,72.7,60.3,30.23,West,270,3.9,8.1,65,0.00,SCT,,0.00,WeatherDisplay:10.37,2013-07-30 14:56:00,
2013-07-30 11:01:00,72.7,59.8,30.23,South,180,5.1,6.1,64,0.00,BKN,,0.00,WeatherDisplay:10.37,2013-07-30 15:01:00,
2013-07-30 11:06:00,72.1,58.8,30.22,NNW,338,4.1,5.3,63,0.00,BKN,,0.00,WeatherDisplay:10.37,2013-07-30 15:06:00,
2013-07-30 11:12:00,72.5,59.2,30.22,ENE,68,6.5,8.1,63,0.00,BKN,,0.00,WeatherDisplay:10.37,2013-07-30 15:12:00,
2013-07-30 11:17:00,72.7,60.7,30.23,SW,225,3.4,5.8,66,0.00,BKN,,0.00,WeatherDisplay:10.37,2013-07-30 15:17:00,
2013-07-30 11:22:00,72.3,59.9,30.23,WSW,248,3.2,5.8,65,0.00,BKN,,0.00,WeatherDisplay:10.37,2013-07-30 15:22:00,
2013-07-30 11:27:00,73.2,60.7,30.22,West,270,6.3,7.8,65,0.00,BKN,,0.00,WeatherDisplay:10.37,2013-07-30 15:27:00,
2013-07-30 11:32:00,71.6,59.6,30.22,West,270,1.8,6.9,66,0.00,BKN,,0.00,WeatherDisplay:10.37,2013-07-30 15:32:00,
2013-07-30 11:37:00,73.4,60.9,30.22,South,180,3.5,4.6,65,0.00,BKN,,0.00,WeatherDisplay:10.37,2013-07-30 15:37:00,
2013-07-30 11:42:00,73.6,60.7,30.22,SW,225,4.7,6.1,64,0.00,BKN,,0.00,WeatherDisplay:10.37,2013-07-30 15:42:00,
2013-07-30 11:47:00,72.1,57.9,30.22,West,270,6.3,11.5,61,0.00,BKN,,0.00,WeatherDisplay:10.37,2013-07-30 15:47:00,
2013-07-30 11:52:00,71.4,59.4,30.22,SSW,202,3.4,4.6,66,0.00,BKN,,0.00,WeatherDisplay:10.37,2013-07-30 15:52:00,
2013-07-30 11:58:00,71.2,58.8,30.22,NNW,338,0.5,4.6,65,0.00,BKN,,0.00,WeatherDisplay:10.37,2013-07-30 15:58:00,
2013-07-30 12:03:00,73.8,59.0,30.22,NNW,338,3.8,5.3,60,0.00,BKN,,0.00,WeatherDisplay:10.37,2013-07-30 16:03:00,
2013-07-30 12:08:00,71.2,59.3,30.22,NNW,338,3.1,4.6,66,0.00,BKN,,0.00,WeatherDisplay:10.37,2013-07-30 16:08:00,
2013-07-30 12:13:00,71.4,59.4,30.22,NNW,338,4.1,6.1,66,0.00,BKN,,0.00,WeatherDisplay:10.37,2013-07-30 16:13:00,
2013-07-30 12:18:00,71.6,58.8,30.22,East,90,4.5,6.9,64,0.00,BKN,,0.00,WeatherDisplay:10.37,2013-07-30 16:18:00,
2013-07-30 12:23:00,74.5,58.3,30.22,East,90,5.5,7.0,57,0.00,BKN,,0.00,WeatherDisplay:10.37,2013-07-30 16:23:00,
2013-07-30 12:28:00,73.8,57.6,30.22,NNE,22,3.6,4.6,57,0.00,BKN,,0.00,WeatherDisplay:10.37,2013-07-30 16:28:00,
2013-07-30 12:33:00,73.0,58.8,30.22,NNE,22,3.4,4.6,61,0.00,BKN,,0.00,WeatherDisplay:10.37,2013-07-30 16:33:00,
2013-07-30 12:38:00,73.6,57.9,30.22,West,270,1.9,9.2,58,0.00,BKN,,0.00,WeatherDisplay:10.37,2013-07-30 16:38:00,
2013-07-30 12:43:00,74.1,57.9,30.21,NE,45,6.0,8.1,57,0.00,BKN,,0.00,WeatherDisplay:10.37,2013-07-30 16:43:00,
2013-07-30 12:48:00,72.3,58.1,30.21,WSW,248,3.8,7.8,61,0.00,BKN,,0.00,WeatherDisplay:10.37,2013-07-30 16:48:00,
2013-07-30 12:53:00,72.9,58.2,30.21,SW,225,7.5,10.4,60,0.00,BKN,,0.00,WeatherDisplay:10.37,2013-07-30 16:53:00,
2013-07-30 12:58:00,73.6,58.9,30.21,NW,315,7.0,7.0,60,0.00,BKN,,0.00,WeatherDisplay:10.37,2013-07-30 16:58:00,
2013-07-30 13:03:00,74.5,59.7,30.21,West,270,4.2,7.0,60,0.00,BKN,,0.00,WeatherDisplay:10.37,2013-07-30 17:03:00,
2013-07-30 13:08:00,73.4,57.7,30.20,North,360,4.4,8.1,58,0.00,BKN,,0.00,WeatherDisplay:10.37,2013-07-30 17:08:00,
2013-07-30 13:13:00,73.8,59.0,30.20,SW,225,3.4,5.8,60,0.00,BKN,,0.00,WeatherDisplay:10.37,2013-07-30 17:13:00,
2013-07-30 13:18:00,74.1,58.9,30.20,WSW,248,2.4,5.8,59,0.00,BKN,,0.00,WeatherDisplay:10.37,2013-07-30 17:18:00,
2013-07-30 13:23:00,75.2,59.4,30.20,NNW,338,5.5,11.5,58,0.00,BKN,,0.00,WeatherDisplay:10.37,2013-07-30 17:23:00,
2013-07-30 13:28:00,74.7,58.0,30.20,ENE,68,4.9,8.1,56,0.00,BKN,,0.00,WeatherDisplay:10.37,2013-07-30 17:28:00,
2013-07-30 13:33:00,73.6,59.3,30.20,NW,315,5.1,8.1,61,0.00,BKN,,0.00,WeatherDisplay:10.37,2013-07-30 17:33:00,
2013-07-30 13:38:00,73.6,59.8,30.20,SSW,202,2.9,9.2,62,0.00,BKN,,0.00,WeatherDisplay:10.37,2013-07-30 17:38:00,
2013-07-30 13:43:00,73.0,58.3,30.20,WNW,292,2.8,4.6,60,0.00,BKN,,0.00,WeatherDisplay:10.37,2013-07-30 17:43:00,
2013-07-30 13:49:00,75.2,59.4,30.20,ENE,68,5.7,8.1,58,0.00,BKN,,0.00,WeatherDisplay:10.37,2013-07-30 17:49:00,
2013-07-30 13:54:00,73.4,59.1,30.19,West,270,3.5,6.9,61,0.00,BKN,,0.00,WeatherDisplay:10.37,2013-07-30 17:54:00,
2013-07-30 13:59:00,73.4,58.7,30.19,WNW,292,2.3,3.5,60,0.00,BKN,,0.00,WeatherDisplay:10.37,2013-07-30 17:59:00,
2013-07-30 14:04:00,73.0,59.7,30.20,West,270,6.4,8.7,63,0.00,BKN,,0.00,WeatherDisplay:10.37,2013-07-30 18:04:00,
2013-07-30 14:09:00,73.4,61.3,30.20,NNE,22,3.5,4.4,66,0.00,BKN,,0.00,WeatherDisplay:10.37,2013-07-30 18:09:00,
2013-07-30 14:14:00,73.4,61.3,30.20,NE,45,3.1,4.4,66,0.00,BKN,,0.00,WeatherDisplay:10.37,2013-07-30 18:14:00,
2013-07-30 14:19:00,73.6,59.3,30.20,NE,45,3.7,4.6,61,0.00,BKN,,0.00,WeatherDisplay:10.37,2013-07-30 18:19:00,
2013-07-30 14:24:00,74.5,59.2,30.20,WSW,248,7.5,9.5,59,0.00,BKN,,0.00,WeatherDisplay:10.37,2013-07-30 18:24:00,
2013-07-30 14:29:00,73.8,60.0,30.19,North,360,1.8,3.5,62,0.00,BKN,,0.00,WeatherDisplay:10.37,2013-07-30 18:29:00,
2013-07-30 14:34:00,73.6,59.8,30.19,NW,315,0.0,2.3,62,0.00,BKN,,0.00,WeatherDisplay:10.37,2013-07-30 18:34:00,
2013-07-30 14:39:00,73.8,60.0,30.19,NW,315,3.5,3.6,62,0.00,BKN,,0.00,WeatherDisplay:10.37,2013-07-30 18:39:00,
2013-07-30 14:44:00,73.2,59.8,30.20,NNW,338,5.1,6.1,63,0.00,BKN,,0.00,WeatherDisplay:10.37,2013-07-30 18:44:00,
2013-07-30 14:49:00,73.8,58.6,30.20,West,270,4.6,8.1,59,0.00,BKN,,0.00,WeatherDisplay:10.37,2013-07-30 18:49:00,
2013-07-30 14:54:00,73.8,58.1,30.20,West,270,3.2,4.6,58,0.00,BKN,,0.00,WeatherDisplay:10.37,2013-07-30 18:54:00,
2013-07-30 14:59:00,74.8,59.0,30.20,West,270,3.7,9.2,58,0.00,BKN,,0.00,WeatherDisplay:10.37,2013-07-30 18:59:00,
2013-07-30 15:04:00,77.0,60.1,30.19,NE,45,2.3,5.8,56,0.00,BKN,,0.00,WeatherDisplay:10.37,2013-07-30 19:04:00,
2013-07-30 15:09:00,77.7,58.7,30.19,ENE,68,8.3,9.5,52,0.00,BKN,,0.00,WeatherDisplay:10.37,2013-07-30 19:09:00,
2013-07-30 15:14:00,76.5,59.1,30.19,NW,315,3.8,5.8,55,0.00,BKN,,0.00,WeatherDisplay:10.37,2013-07-30 19:14:00,
2013-07-30 15:19:00,77.5,59.0,30.19,ENE,68,5.1,6.1,53,0.00,BKN,,0.00,WeatherDisplay:10.37,2013-07-30 19:19:00,
2013-07-30 15:24:00,77.5,58.5,30.19,NE,45,7.8,9.2,52,0.00,BKN,,0.00,WeatherDisplay:10.37,2013-07-30 19:24:00,
2013-07-30 15:29:00,76.3,58.4,30.19,NE,45,7.8,8.1,54,0.00,BKN,,0.00,WeatherDisplay:10.37,2013-07-30 19:29:00,
2013-07-30 15:34:00,76.3,57.9,30.19,WNW,292,3.3,5.8,53,0.00,BKN,,0.00,WeatherDisplay:10.37,2013-07-30 19:34:00,
2013-07-30 15:39:00,76.3,56.8,30.19,ESE,112,3.9,8.1,51,0.00,BKN,,0.00,WeatherDisplay:10.37,2013-07-30 19:39:00,
2013-07-30 15:44:00,76.8,58.9,30.18,WNW,292,5.1,8.1,54,0.00,BKN,,0.00,WeatherDisplay:10.37,2013-07-30 19:44:00,
2013-07-30 15:49:00,75.0,57.2,30.18,NNW,338,2.8,4.6,54,0.00,BKN,,0.00,WeatherDisplay:10.37,2013-07-30 19:49:00,
2013-07-30 15:54:00,76.1,58.2,30.18,NNW,338,2.0,4.6,54,0.00,BKN,,0.00,WeatherDisplay:10.37,2013-07-30 19:54:00,
2013-07-30 16:00:00,79.7,59.4,30.18,NNE,22,5.4,7.0,50,0.00,BKN,,0.00,WeatherDisplay:10.37,2013-07-30 20:00:00,
2013-07-30 16:05:00,78.8,59.1,30.18,NNW,338,3.4,5.8,51,0.00,BKN,,0.00,WeatherDisplay:10.37,2013-07-30 20:05:00,
2013-07-30 16:10:00,76.8,58.4,30.18,ESE,112,3.4,4.6,53,0.00,BKN,,0.00,WeatherDisplay:10.37,2013-07-30 20:10:00,
2013-07-30 16:15:00,77.7,58.1,30.17,NNW,338,4.2,5.8,51,0.00,BKN,,0.00,WeatherDisplay:10.37,2013-07-30 20:15:00,
2013-07-30 16:20:00,77.5,57.9,30.17,NNE,22,2.1,4.6,51,0.00,BKN,,0.00,WeatherDisplay:10.37,2013-07-30 20:20:00,
2013-07-30 16:25:00,77.9,58.3,30.17,NNE,22,5.6,9.2,51,0.00,BKN,,0.00,WeatherDisplay:10.37,2013-07-30 20:25:00,
2013-07-30 16:30:00,78.6,59.5,30.18,West,270,3.2,9.2,52,0.00,BKN,,0.00,WeatherDisplay:10.37,2013-07-30 20:30:00,
2013-07-30 16:35:00,77.0,58.6,30.18,NW,315,3.8,5.8,53,0.00,BKN,,0.00,WeatherDisplay:10.37,2013-07-30 20:35:00,
2013-07-30 16:40:00,77.0,58.6,30.17,NW,315,3.2,5.8,53,0.00,BKN,,0.00,WeatherDisplay:10.37,2013-07-30 20:40:00,
2013-07-30 16:45:00,78.3,59.2,30.17,East,90,3.9,5.3,52,0.00,BKN,,0.00,WeatherDisplay:10.37,2013-07-30 20:45:00,
2013-07-30 16:50:00,77.9,58.9,30.17,NNE,22,7.4,9.2,52,0.00,BKN,,0.00,WeatherDisplay:10.37,2013-07-30 20:50:00,
2013-07-30 16:55:00,78.4,58.2,30.17,NE,45,6.6,7.8,50,0.00,BKN,,0.00,WeatherDisplay:10.37,2013-07-30 20:55:00,
2013-07-30 17:00:00,78.8,58.6,30.17,NE,45,6.2,10.4,50,0.00,BKN,,0.00,WeatherDisplay:10.37,2013-07-30 21:00:00,
2013-07-30 17:05:00,79.0,60.4,30.16,West,270,3.8,6.9,53,0.00,SCT,,0.00,WeatherDisplay:10.37,2013-07-30 21:05:00,
2013-07-30 17:10:00,83.8,59.6,30.16,NW,315,3.0,4.6,44,0.00,SCT,,0.00,WeatherDisplay:10.37,2013-07-30 21:10:00,
2013-07-30 17:15:00,84.4,60.1,30.16,NNE,22,4.1,5.8,44,0.00,SCT,,0.00,WeatherDisplay:10.37,2013-07-30 21:15:00,
2013-07-30 17:20:00,85.5,60.4,30.16,ENE,68,4.5,6.1,43,0.00,SCT,,0.00,WeatherDisplay:10.37,2013-07-30 21:20:00,
2013-07-30 17:25:00,83.5,59.9,30.16,West,270,5.7,7.0,45,0.00,SCT,,0.00,WeatherDisplay:10.37,2013-07-30 21:25:00,
2013-07-30 17:30:00,83.1,62.0,30.17,West,270,3.1,3.6,49,0.00,SCT,,0.00,WeatherDisplay:10.37,2013-07-30 21:30:00,
2013-07-30 17:35:00,84.4,60.7,30.17,West,270,1.7,4.4,45,0.00,SCT,,0.00,WeatherDisplay:10.37,2013-07-30 21:35:00,
2013-07-30 17:39:00,85.1,59.4,30.17,North,360,3.0,4.6,42,0.00,SCT,,0.00,WeatherDisplay:10.37,2013-07-30 21:39:00,
2013-07-30 17:44:00,79.3,58.5,30.17,North,360,3.6,4.4,49,0.00,SCT,,0.00,WeatherDisplay:10.37,2013-07-30 21:44:00,
2013-07-30 17:49:00,79.7,58.8,30.17,North,360,4.1,4.6,49,0.00,SCT,,0.00,WeatherDisplay:10.37,2013-07-30 21:49:00,
2013-07-30 17:54:00,79.5,60.3,30.16,North,360,4.0,4.6,52,0.00,SCT,,0.00,WeatherDisplay:10.37,2013-07-30 21:54:00,
2013-07-30 17:59:00,79.3,59.6,30.16,NNW,338,3.1,4.6,51,0.00,SCT,,0.00,WeatherDisplay:10.37,2013-07-30 21:59:00,
2013-07-30 18:04:00,80.1,59.2,30.16,NNE,22,1.2,4.4,49,0.00,SCT,,0.00,WeatherDisplay:10.37,2013-07-30 22:04:00,
2013-07-30 18:09:00,79.2,61.6,30.16,West,270,3.2,6.1,55,0.00,SCT,,0.00,WeatherDisplay:10.37,2013-07-30 22:09:00,
2013-07-30 18:14:00,80.2,58.7,30.16,NE,45,1.8,3.5,48,0.00,SCT,,0.00,WeatherDisplay:10.37,2013-07-30 22:14:00,
2013-07-30 18:19:00,79.7,59.4,30.16,NW,315,3.6,5.8,50,0.00,SCT,,0.00,WeatherDisplay:10.37,2013-07-30 22:19:00,
2013-07-30 18:24:00,79.3,60.1,30.16,ENE,68,2.7,3.6,52,0.00,SCT,,0.00,WeatherDisplay:10.37,2013-07-30 22:24:00,
2013-07-30 18:29:00,79.0,60.4,30.16,ENE,68,0.0,3.5,53,0.00,SCT,,0.00,WeatherDisplay:10.37,2013-07-30 22:29:00,
2013-07-30 18:34:00,78.6,59.5,30.16,ENE,68,0.0,2.3,52,0.00,SCT,,0.00,WeatherDisplay:10.37,2013-07-30 22:34:00,
2013-07-30 18:39:00,78.3,61.3,30.16,ENE,68,2.3,4.6,56,0.00,SCT,,0.00,WeatherDisplay:10.37,2013-07-30 22:39:00,
2013-07-30 18:44:00,78.1,62.1,30.16,ENE,68,0.0,0.0,58,0.00,SCT,,0.00,WeatherDisplay:10.37,2013-07-30 22:44:00,
2013-07-30 18:49:00,77.4,62.9,30.16,ENE,68,0.0,0.0,61,0.00,SCT,,0.00,WeatherDisplay:10.37,2013-07-30 22:49:00,
2013-07-30 18:54:00,77.4,59.5,30.16,ENE,68,0.0,0.0,54,0.00,SCT,,0.00,WeatherDisplay:10.37,2013-07-30 22:54:00,
2013-07-30 18:59:00,76.6,59.2,30.16,ENE,68,3.0,4.6,55,0.00,SCT,,0.00,WeatherDisplay:10.37,2013-07-30 22:59:00,
2013-07-30 19:04:00,76.8,60.4,30.16,ENE,68,0.8,2.3,57,0.00,SCT,,0.00,WeatherDisplay:10.37,2013-07-30 23:04:00,
2013-07-30 19:09:00,76.8,64.6,30.16,ENE,68,2.5,2.7,66,0.00,SCT,,0.00,WeatherDisplay:10.37,2013-07-30 23:09:00,
2013-07-30 19:14:00,76.8,63.2,30.16,ENE,68,0.0,0.0,63,0.00,SCT,,0.00,WeatherDisplay:10.37,2013-07-30 23:14:00,
2013-07-30 19:19:00,76.5,63.9,30.16,ENE,68,2.5,2.7,65,0.00,SCT,,0.00,WeatherDisplay:10.37,2013-07-30 23:19:00,
2013-07-30 19:24:00,75.7,64.0,30.16,ENE,68,0.0,0.0,67,0.00,SCT,,0.00,WeatherDisplay:10.37,2013-07-30 23:24:00,
2013-07-30 19:29:00,75.0,65.0,30.16,ENE,68,0.0,0.0,71,0.00,SCT,,0.00,WeatherDisplay:10.37,2013-07-30 23:29:00,
2013-07-30 19:34:00,73.6,63.6,30.16,ENE,68,0.0,0.0,71,0.00,SCT,,0.00,WeatherDisplay:10.37,2013-07-30 23:34:00,
2013-07-30 19:39:00,73.4,63.0,30.16,ENE,68,0.0,0.0,70,0.00,SCT,,0.00,WeatherDisplay:10.37,2013-07-30 23:39:00,
2013-07-30 19:44:00,73.0,63.8,30.16,ENE,68,0.0,0.0,73,0.00,SCT,,0.00,WeatherDisplay:10.37,2013-07-30 23:44:00,
2013-07-30 19:49:00,72.3,62.4,30.16,ENE,68,0.0,0.0,71,0.00,SCT,,0.00,WeatherDisplay:10.37,2013-07-30 23:49:00,
2013-07-30 19:54:00,71.4,62.7,30.15,ENE,68,0.0,0.0,74,0.00,SCT,,0.00,WeatherDisplay:10.37,2013-07-30 23:54:00,
2013-07-30 19:59:00,71.1,61.6,30.15,ENE,68,0.0,0.0,72,0.00,SCT,,0.00,WeatherDisplay:10.37,2013-07-30 23:59:00,
2013-07-30 20:04:00,70.5,61.8,30.16,ENE,68,0.0,0.0,74,0.00,BKN,,0.00,WeatherDisplay:10.37,2013-07-31 00:04:00,
2013-07-30 20:09:00,70.0,61.7,30.16,ENE,68,0.0,0.0,75,0.00,BKN,,0.00,WeatherDisplay:10.37,2013-07-31 00:09:00,
2013-07-30 20:14:00,69.6,61.3,30.16,ENE,68,0.0,0.0,75,0.00,BKN,,0.00,WeatherDisplay:10.37,2013-07-31 00:14:00,
2013-07-30 20:19:00,68.7,61.6,30.16,ENE,68,0.0,0.0,78,0.00,BKN,,0.00,WeatherDisplay:10.37,2013-07-31 00:19:00,
2013-07-30 20:24:00,68.0,61.6,30.16,ENE,68,0.0,0.0,80,0.00,BKN,,0.00,WeatherDisplay:10.37,2013-07-31 00:24:00,
2013-07-30 20:29:00,67.3,61.3,30.16,ENE,68,0.0,0.0,81,0.00,BKN,,0.00,WeatherDisplay:10.37,2013-07-31 00:29:00,
2013-07-30 20:34:00,66.9,60.9,30.16,ENE,68,0.0,0.0,81,0.00,BKN,,0.00,WeatherDisplay:10.37,2013-07-31 00:34:00,
2013-07-30 20:39:00,66.9,60.5,30.16,ENE,68,0.0,0.0,80,0.00,BKN,,0.00,WeatherDisplay:10.37,2013-07-31 00:39:00,
2013-07-30 20:44:00,66.0,60.3,30.16,ENE,68,0.0,0.0,82,0.00,BKN,,0.00,WeatherDisplay:10.37,2013-07-31 00:44:00,
2013-07-30 20:49:00,65.7,61.1,30.16,ENE,68,0.0,0.0,85,0.00,BKN,,0.00,WeatherDisplay:10.37,2013-07-31 00:49:00,
2013-07-30 20:54:00,65.1,60.5,30.16,ENE,68,0.0,0.0,85,0.00,BKN,,0.00,WeatherDisplay:10.37,2013-07-31 00:54:00,
2013-07-30 20:59:00,64.9,60.3,30.16,ENE,68,0.0,0.0,85,0.00,BKN,,0.00,WeatherDisplay:10.37,2013-07-31 00:59:00,
2013-07-30 21:04:00,64.4,60.4,30.16,ENE,68,0.0,0.0,87,0.00,BKN,,0.00,WeatherDisplay:10.37,2013-07-31 01:04:00,
2013-07-30 21:09:00,63.7,60.7,30.16,ENE,68,0.0,0.0,90,0.00,BKN,,0.00,WeatherDisplay:10.37,2013-07-31 01:09:00,
2013-07-30 21:14:00,63.3,60.6,30.16,ENE,68,0.0,0.0,91,0.00,BKN,,0.00,WeatherDisplay:10.37,2013-07-31 01:14:00,
2013-07-30 21:19:00,63.1,60.7,30.16,ENE,68,0.0,0.0,92,0.00,BKN,,0.00,WeatherDisplay:10.37,2013-07-31 01:19:00,
2013-07-30 21:24:00,63.1,60.7,30.16,ENE,68,0.0,0.0,92,0.00,BKN,,0.00,WeatherDisplay:10.37,2013-07-31 01:24:00,
2013-07-30 21:29:00,63.0,60.6,30.16,ENE,68,0.0,0.0,92,0.00,BKN,,0.00,WeatherDisplay:10.37,2013-07-31 01:29:00,
2013-07-30 21:35:00,63.0,60.6,30.16,ENE,68,0.0,0.0,92,0.00,BKN,,0.00,WeatherDisplay:10.37,2013-07-31 01:35:00,
2013-07-30 21:40:00,62.8,60.4,30.16,ENE,68,0.0,0.0,92,0.00,BKN,,0.00,WeatherDisplay:10.37,2013-07-31 01:40:00,
2013-07-30 21:45:00,62.2,60.5,30.16,ENE,68,0.0,0.0,94,0.00,BKN,,0.00,WeatherDisplay:10.37,2013-07-31 01:45:00,
2013-07-30 21:50:00,62.2,60.5,30.16,ENE,68,0.0,0.0,94,0.00,BKN,,0.00,WeatherDisplay:10.37,2013-07-31 01:50:00,
2013-07-30 21:55:00,61.9,60.2,30.16,ENE,68,0.0,0.0,94,0.00,BKN,,0.00,WeatherDisplay:10.37,2013-07-31 01:55:00,
2013-07-30 22:00:00,61.7,60.3,30.16,ENE,68,0.0,0.0,95,0.00,BKN,,0.00,WeatherDisplay:10.37,2013-07-31 02:00:00,
2013-07-30 22:05:00,61.7,60.3,30.16,ENE,68,0.0,0.0,95,0.00,SCT,,0.00,WeatherDisplay:10.37,2013-07-31 02:05:00,
2013-07-30 22:10:00,61.7,60.3,30.16,ENE,68,0.0,0.0,95,0.00,SCT,,0.00,WeatherDisplay:10.37,2013-07-31 02:10:00,
2013-07-30 22:15:00,61.7,60.0,30.16,ENE,68,0.0,0.0,94,0.00,SCT,,0.00,WeatherDisplay:10.37,2013-07-31 02:15:00,
2013-07-30 22:20:00,61.3,59.9,30.16,ENE,68,0.0,0.0,95,0.00,SCT,,0.00,WeatherDisplay:10.37,2013-07-31 02:20:00,
2013-07-30 22:25:00,61.0,59.9,30.16,ENE,68,0.0,0.0,96,0.00,SCT,,0.00,WeatherDisplay:10.37,2013-07-31 02:25:00,
2013-07-30 22:30:00,61.0,60.1,30.16,ENE,68,0.0,0.0,97,0.00,SCT,,0.00,WeatherDisplay:10.37,2013-07-31 02:30:00,
2013-07-30 22:35:00,60.8,59.9,30.16,ENE,68,0.0,0.0,97,0.00,SCT,,0.00,WeatherDisplay:10.37,2013-07-31 02:35:00,
2013-07-30 22:40:00,60.8,59.9,30.16,ENE,68,0.0,0.0,97,0.00,SCT,,0.00,WeatherDisplay:10.37,2013-07-31 02:40:00,
2013-07-30 22:45:00,60.6,59.7,30.16,ENE,68,0.0,0.0,97,0.00,SCT,,0.00,WeatherDisplay:10.37,2013-07-31 02:45:00,
2013-07-30 22:50:00,60.6,59.7,30.16,ENE,68,0.0,0.0,97,0.00,SCT,,0.00,WeatherDisplay:10.37,2013-07-31 02:50:00,
2013-07-30 22:55:00,60.6,59.5,30.17,ENE,68,0.0,0.0,96,0.00,SCT,,0.00,WeatherDisplay:10.37,2013-07-31 02:55:00,
2013-07-30 23:00:00,60.6,59.5,30.17,ENE,68,0.0,0.0,96,0.00,SCT,,0.00,WeatherDisplay:10.37,2013-07-31 03:00:00,
2013-07-30 23:05:00,60.4,59.3,30.16,ENE,68,0.0,0.0,96,0.00,SCT,,0.00,WeatherDisplay:10.37,2013-07-31 03:05:00,
2013-07-30 23:10:00,60.3,59.4,30.16,ENE,68,0.0,0.0,97,0.00,SCT,,0.00,WeatherDisplay:10.37,2013-07-31 03:10:00,
2013-07-30 23:15:00,60.3,59.4,30.16,ENE,68,0.0,0.0,97,0.00,SCT,,0.00,WeatherDisplay:10.37,2013-07-31 03:15:00,
2013-07-30 23:20:00,60.1,59.2,30.16,ENE,68,0.0,0.0,97,0.00,SCT,,0.00,WeatherDisplay:10.37,2013-07-31 03:20:00,
2013-07-30 23:25:00,60.1,59.2,30.16,ENE,68,0.0,0.0,97,0.00,SCT,,0.00,WeatherDisplay:10.37,2013-07-31 03:25:00,
2013-07-30 23:31:00,60.1,59.2,30.16,ENE,68,0.0,0.0,97,0.00,SCT,,0.00,WeatherDisplay:10.37,2013-07-31 03:31:00,
2013-07-30 23:36:00,59.7,58.8,30.16,ENE,68,0.0,0.0,97,0.00,SCT,,0.00,WeatherDisplay:10.37,2013-07-31 03:36:00,
2013-07-30 23:41:00,59.7,58.8,30.16,ENE,68,0.0,0.0,97,0.00,SCT,,0.00,WeatherDisplay:10.37,2013-07-31 03:41:00,
2013-07-30 23:46:00,59.7,58.8,30.16,ENE,68,0.0,0.0,97,0.00,SCT,,0.00,WeatherDisplay:10.37,2013-07-31 03:46:00,
2013-07-30 23:52:00,59.7,58.8,30.16,ENE,68,0.0,0.0,97,0.00,SCT,,0.00,WeatherDisplay:10.37,2013-07-31 03:52:00,
2013-07-30 23:57:00,59.5,58.6,30.15,ENE,68,0.0,0.0,97,0.00,SCT,,0.00,WeatherDisplay:10.37,2013-07-31 03:57:00,